User: anonymous   Login
Location: Rancho Del Sol Observatory
(38.7214°N, 120.6350°W)
Time: 20:54:59
(UTC-08:00)
Language:

Cosmos 2221 Rocket - Orbit

View from above orbital plane
View from above orbital plane
View from above satellite
View from above satellite

Ground track
Ground track

The orbit data is extracted from the following two-line orbital elements,

1 22237U 92080B   14332.52581824  .00000554  00000-0  73537-4 0  5037
2 22237 082.5134 264.2236 0019930 016.4410 110.4919 14.77977648185801
Epoch (UTC): 28 November 2014 12:37:10
Eccentricity: 0.0019930
inclination: 82.5134°
perigee height: 622 km
apogee height: 649 km
right ascension of ascending node: 264.2236°
argument of perigee: 16.4410°
revolutions per day: 14.77977648
mean anomaly at epoch: 110.4919°
orbit number at epoch: 18580

The dashed part of the orbit path shows where the satellite is in the earth's shadow,  

DLR